STARLINK-35711 (66595 NORAD) Tracking and Keplerian Element Data

This shows tracking and keplerian element data for the satellite.

Feedback or suggestion? Click here.




ElementValue
Catalog66595
NameSTARLINK-35711
Epoch Orbit560
Epoch Day354.14028475
Epoch Year2025
RAAN149.4265
Inclination42.999
Eccentricity0.0003421
Argument of Perigee341.0071
Mean Anonmoly19.0661
Mean Motion15.5018184
Decay Rate0.00071426
L11 66595U 25270H 25354.14028475 .00071426 00000+0 12293-2 0 9995
L22 66595 42.9990 149.4265 0003421 341.0071 19.0661 15.50181840 5600



Live tracking and technical data element details for STARLINK-35711 (NORAD 66595). STARLINK-35711 can be tracked NOW for your location showing map with azimuth and elevation plus other details from your city location.







IsCatalogInMostPopularTable: catalog: 66595, numindb: 8
Update: records affected: 1



GetName: 66595 STARLINK-35711

Hit Count: updated at: Mon, 09 Feb 2026 09:01:14 GMT